Location: Newark
(25.6108°S, 54.5803°W)
Time: 05:12:54
(UTC+00:00)

deb Explorer IX - Pass Details

Date: 31 October 2020
Orbit: 538 x 1104 km, 38.8° (Epoch: 29 November)

Event Time Altitude Azimuth Distance (km) Brightness Sun altitude
Rises 18:15:55 0° 303° (WNW) 3,760 ? 47.8°
Reaches altitude 10° 18:18:45 10° 302° (WNW) 2,743 ? 47.2°
Maximum altitude 18:25:23 88° 211° (SSW) 893 ? 45.7°
Drops below altitude 10° 18:31:02 10° 122° (ESE) 2,357 ? 44.4°
Sets 18:33:19 0° 121° (ESE) 3,201 ? 43.9°
